Regional Weather Roundup
Issued by NWS

Home | Current Version | Previous Version | Text Only | Print | Product List | Glossary Off
Versions: 1 2 3 4 5 6 7 8 9 10 11 12 13 14 15 16 17 18 19 20 21 22 23 24 25 26 27 28 29 30 31 32 33 34 35 36 37 38 39 40 41 42 43 44 45 46 47 48 49 50

000
ASUS43 KMKX 292311
RWRWI

WISCONSIN REGIONAL WEATHER ROUNDUP
NATIONAL WEATHER SERVICE MILWAUKEE/SULLIVAN WI
600 PM CDT TUE JUL 29 2014

NOTE: "FAIR" INDICATES FEW OR NO CLOUDS BELOW 12,000 FEET WITH NO
SIGNIFICANT WEATHER AND/OR OBSTRUCTIONS TO VISIBILITY.

WIZ001-002-006>008-014>016-023>028-300000-
NORTHWEST WISCONSIN

CITY           SKY/WX    TMP DP  RH WIND       PRES   REMARKS
SUPERIOR ARPT  PTSUNNY   64  59  83 NW3       30.02F
ASHLAND        PTSUNNY   64  60  87 VRB5      30.03F
HAYWARD        LGT RAIN  60  58  92 NE9       30.06R
SIREN          SUNNY     76  53  44 NW10      30.04S
RICE LAKE      SUNNY     73  59  60 W7        30.04F
LADYSMITH      MOSUNNY   74  59  58 W10       30.04S
EAU CLAIRE     PTSUNNY   71  56  58 W8        30.02F
MENOMONIE      CLOUDY    70  58  63 SW6       30.04F
NEW RICHMOND   MOSUNNY   75  55  48 NW8G17    30.04S
OSCEOLA        SUNNY     77  55  46 NW12      30.06S
$$

WIZ003>005-009-010-017-018-300000-
NORTH CENTRAL WISCONSIN

CITY           SKY/WX    TMP DP  RH WIND       PRES   REMARKS
WOODRUFF       CLOUDY    72  57  58 NW9G16    30.01F
RHINELANDER    PTSUNNY   64  57  78 W10       30.01F
EAGLE RIVER    PTSUNNY   67  55  64 NW6       29.99F
LAND O LAKES   PTSUNNY   69  53  55 NW6       30.00F
PHILLIPS       LGT RAIN  60  55  85 NW7       30.03S
TOMAHAWK       LGT RAIN  60  57  91 CALM      30.03F
MEDFORD        CLOUDY    64  53  68 N10       30.06R
MERRILL        LGT RAIN  60  56  85 NW6       30.02F
$$

WIZ029-030-035-036-043>047-300000-
CENTRAL WISCONSIN

CITY           SKY/WX    TMP DP  RH WIND       PRES   REMARKS
WAUSAU         LGT RAIN  62  55  77 NW10      30.01S
MOSINEE        NOT AVBL
MARSHFIELD     CLOUDY    66  60  81 W9        30.04R
STEVENS POINT  PTSUNNY   69  50  51 W8G21     30.02R
WAUPACA        LGT RAIN  72  59  64 NW7       29.98R
WAUTOMA        CLOUDY    76  53  44 NW7       29.99S
WISC RAPIDS    LGT RAIN  63  58  83 W12       30.05R
CAMP DOUGLAS   PTSUNNY   66  64  94 W7        30.04S
$$

WIZ011>013-019>022-031-037>040-048>050-300000-
NORTHEAST WISCONSIN

CITY           SKY/WX    TMP DP  RH WIND       PRES   REMARKS
ANTIGO         PTSUNNY   64  58  81 W7        30.02S
STURGEON BAY   MOSUNNY   68  57  68 SW8       29.97S
GREEN BAY      LGT RAIN  62  61  96 CALM      29.99S
MANITOWOC      LGT RAIN  62  59  90 W6        30.00R
APPLETON       NOT AVBL
CLINTONVILLE   RAIN      59  55  88 NE3       30.00F
OSHKOSH        PTSUNNY   76  54  46 NW9       29.97R
$$

WIZ032>034-041-042-053>061-300000-
SOUTHWEST WISCONSIN

CITY           SKY/WX    TMP DP  RH WIND       PRES   REMARKS
LA CROSSE      MOSUNNY   72  57  59 SE6       30.03S
SPARTA         PTSUNNY   68  53  59 CALM      30.05S
VIROQUA        CLOUDY    65  59  81 NE3       30.05F
BOSCOBEL       MOSUNNY   81  57  43 W7        30.02S HX  81
PRAIRIE DU CHI SUNNY     79  51  38 W12       30.02S
PLATTEVILLE    FAIR      78  53  42 NW8       30.04F
$$

WIZ056-057-062-063-064-067-068-300000-
SOUTH CENTRAL WISCONSIN

CITY           SKY/WX    TMP DP  RH WIND       PRES   REMARKS
BARABOO/DELLS  RAIN      62  55  79 NW8       30.05R
LONE ROCK      TSTM      74  60  61 N14G21    30.02S
WATERTOWN      MOSUNNY   77  54  44 W9G17     29.98S
MADISON        PTSUNNY   76  54  46 NW8       30.00S
MIDDLETON      FAIR      76  53  44 W10       30.01S
MONROE         SUNNY     73  54  49 W6        30.02F
JANESVILLE     MOSUNNY   79  50  36 NW10      29.99F
$$

WIZ051-052-058>065-066-070>072-300000-
SOUTHEAST WISCONSIN

CITY           SKY/WX    TMP DP  RH WIND       PRES   REMARKS
MILWAUKEE      MOSUNNY   77  52  41 NW8       29.98S
WAUKESHA       MOSUNNY   75  52  43 NW13      29.99F
MILWAUKEE/TIMM MOSUNNY   75  52  43 NW7       29.98F
RACINE         NOT AVBL
BURLINGTON     SUNNY     74  52  45 NW9       29.99S
KENOSHA        MOSUNNY   76  55  48 NW9       29.99S
FOND DU LAC    SUNNY     77  53  43 NW8       29.98R
SHEBOYGAN      RAIN      61  56  83 E6        29.99S
WEST BEND      SUNNY     75  50  41 W12G17    29.98R
JUNEAU         SUNNY     75  47  36 W6        30.00S
$$

LSZ147-162-300000-
LAKE SUPERIOR

STATION/POSITION TIME  TEMP    WIND        PRES    WAVE
                       AIR SEA DIR/SP/G            HT/PER
                 (UTC) (F)     (DEG/KT/KT) (MB)    (FT/S)
W MID LAKE BUOY  2250   55 44  190/  2/  4 1016.1F   1
PORT WING        2240   64     200/  4/  8 1016.6S
SAXON HARBOR     2200           10/ 10/ 12 1017.3R
$$

LMZ867-665-643>646-300000-
LAKE MICHIGAN

STATION/POSITION TIME  TEMP    WIND        PRES    WAVE
                       AIR SEA DIR/SP/G            HT/PER
                 (UTC) (F)     (DEG/KT/KT) (MB)    (FT/S)
N MID LAKE BUOY  2250   58 57  200/  4/  6 1013.9S   0
NORTHPORT PIER   2200   65     160/  2/  4 1014.2S
SISTER BAY       2210   71        CALM       N/A
ALGOMA LAKESHORE 2251          220/  7/  8   N/A
KEWAUNEE LAKESHO 2200   58     190/  6/  7 1015.6F
SHEBOYGAN LAKESH 2300   61     200/  3/  3 1015.7R
PORT WASHINGTON  2140   79     290/  7/ 12 1015.2F
ATWATER BUOY     2300   65     150/  8     1016.0F
MILWAUKEE LAKESH 2200   66     130/ 10/ 13   N/A
S MID LAKE BUOY  2250   63 62  200/  8/  8 1015.5F   1
KENOSHA   LAKESH 2300   65     170/ 10/ 13 1014.9F
$$

TC  - TEMPERATURE IN CELSIUS
VSB - VISIBILITY IN STATUTE MILES
WCI - WIND CHILL INDEX
HX  - HEAT INDEX




USA.gov is the U.S. government's official web portal to all federal, state and local government web resources and services.